CAPE
30 35 76 74 16 33 80 107 122 110 55 72 36 8 5 4 7 1 0 0 0 2 0 7 13 29 1 9 0 0 0 0 0 0 9 1 0 0 0 0 0 0 0 0 1 0 0
18 16 31 48 103 107 30 32 75 112 90 84 63 26 4 1 7 1 0 0 0 0 5 0 15 13 0 0 0 0 0 0 0 0 0 0 1 0 0 0 0 0 0 0 0 0 0
17 15 7 19 67 127 107 86 74 125 107 83 85 62 41 0 3 2 0 5 8 0 0 1 14 6 11 0 0 0 0 0 0 2 25 20 0 16 15 2 0 0 0 0 0 0 0
41 41 19 3 28 40 90 108 114 113 135 98 89 96 56 29 13 15 2 16 0 17 8 25 30 13 1 0 0 0 0 0 0 0 0 0 2 43 25 23 2 2 1 2 0 0 0
24 32 32 35 20 18 45 147 118 119 116 121 117 100 73 42 47 48 44 21 11 10 15 33 5 4 0 0 0 0 0 0 0 0 0 0 0 0 0 28 18 4 4 0 3 0 6
25 31 28 51 32 15 20 54 180 135 126 96 105 101 90 61 61 71 58 20 14 21 19 27 20 12 0 0 0 0 0 0 0 0 0 0 0 0 0 20 11 18 10 0 0 5 15
38 33 39 51 64 36 18 28 23 174 148 108 89 93 90 70 59 65 7 0 0 0 15 0 0 0 0 0 0 0 0 0 0 0 0 0 11 3 0 0 0 0 0 0 0 0 1
55 47 81 45 60 61 40 32 21 37 149 122 93 91 90 89 71 70 0 0 0 0 0 0 0 0 0 1 0 0 0 0 2 2 0 0 5 0 0 0 0 0 0 0 0 0 0
41 33 71 84 42 41 64 47 47 26 188 156 99 109 95 87 77 50 3 0 0 0 0 0 0 0 0 2 2 5 0 0 0 2 3 1 0 0 0 0 2 0 0 0 0 0 0
69 66 49 99 75 56 67 62 54 38 94 90 109 131 114 64 33 0 14 0 0 2 1 0 0 2 11 21 18 5 0 0 11 2 1 3 0 0 0 4 0 1 0 0 2 25 1
88 104 73 100 84 99 103 95 71 82 38 59 86 148 106 7 0 0 0 0 0 7 0 0 0 0 11 6 3 0 1 3 10 0 0 0 0 0 0 0 0 0 0 0 7 15 22
97 90 78 116 94 128 113 50 50 71 72 35 45 151 24 0 0 0 0 0 4 1 0 0 0 0 12 12 12 3 19 24 11 12 12 0 0 0 0 0 0 6 3 8 15 39 13
84 90 84 102 120 190 138 60 150 72 11 80 4 111 1 0 0 0 0 3 2 0 0 2 2 3 0 3 9 20 5 28 10 4 3 11 1 0 1 0 0 6 22 42 23 26 8
102 109 102 97 67 119 102 79 127 110 31 35 9 12 0 0 0 0 0 10 0 0 0 0 0 1 3 0 11 5 24 23 32 8 18 3 1 3 0 0 0 0 1 8 9 0 0
115 131 115 83 79 70 94 47 179 79 25 28 40 5 1 2 0 0 5 18 0 0 0 0 4 8 8 15 3 32 32 8 0 6 0 5 1 0 0 0 5 11 23 0 7 9 19
112 125 105 101 55 74 75 52 83 64 32 30 44 1 2 7 1 1 2 1 0 0 0 0 1 6 1 3 7 15 14 0 4 0 0 0 1 0 5 8 8 11 10 12 21 6 11
105 105 112 64 49 84 70 54 82 57 66 16 9 16 16 19 6 19 6 0 0 0 0 3 13 13 1 0 0 2 0 0 0 0 0 0 2 0 0 2 85 29 26 28 0 4 36
97 100 97 50 44 80 76 84 60 77 52 16 53 15 28 16 15 11 20 9 0 1 2 12 4 7 1 0 0 0 0 0 0 0 0 0 25 2 0 0 9 3 0 0 7 0 21
123 99 76 46 83 145 65 77 71 86 64 48 53 23 19 9 3 6 9 10 5 21 17 13 14 7 0 0 0 0 0 0 0 0 0 8 34 1 5 11 6 55 0 24 0 33 13
109 102 83 48 76 103 85 85 92 58 69 45 30 14 29 17 21 8 8 16 11 8 9 13 26 8 15 19 0 0 0 0 0 0 42 5 13 6 5 54 4 1 15 2 0 18 8
100 98 106 42 50 56 109 104 89 61 17 16 34 18 11 10 12 2 4 14 4 13 2 4 5 6 12 6 0 0 0 0 1 28 25 9 10 0 3 4 13 3 19 4 19 0 0
99 95 98 50 49 27 70 77 75 43 17 51 28 12 8 0 3 11 6 14 19 20 20 16 4 15 0 7 0 0 0 0 1 0 7 4 2 7 4 0 2 6 3 4 2 0 1
99 88 88 43 41 33 91 89 82 25 45 5 5 0 4 0 1 6 5 2 0 9 7 0 11 11 21 1 5 22 7 0 0 5 0 0 1 6 4 10 5 17 1 2 0 1 0
85 84 86 59 36 60 80 71 81 31 52 33 11 0 13 16 3 7 5 0 0 0 1 5 0 8 2 16 24 26 6 0 0 0 0 0 0 8 3 7 0 0 0 0 2 0 0
90 78 82 63 35 51 66 69 68 36 28 19 5 0 0 7 0 0 0 0 0 0 0 16 5 3 0 3 27 9 2 0 0 0 0 0 0 0 0 0 0 0 0 0 0 0 0
87 86 69 59 29 31 48 51 65 49 45 15 1 0 0 0 0 0 0 0 0 0 0 0 0 0 7 35 28 15 2 0 0 0 0 0 0 7 0 0 0 0 0 0 0 0 0
86 84 60 34 42 32 38 47 53 57 52 17 0 0 0 10 0 0 0 0 0 0 1 0 1 2 1 22 14 8 1 0 0 0 7 0 0 0 0 0 0 0 0 0 0 0 0
83 76 51 26 46 29 13 44 59 41 32 24 7 0 1 0 0 0 0 0 0 0 4 1 13 4 1 4 1 3 0 0 0 0 0 0 3 0 0 0 0 0 0 0 0 0 0
66 77 70 18 39 33 12 36 47 27 26 21 1 0 0 0 0 0 0 0 0 0 0 1 2 1 0 3 1 0 0 0 1 0 0 0 0 0 0 0 0 0 0 0 0 0 0
CIN
-31 -19 -81 0 0 0 -107 -97 -96 -100 -3 -0 -0 0 -0 0 -0 0 0 0 0 0 0 -1 -1 -2 -0 0 0 0 0 0 0 0 -3 -1 0 0 0 0 0 0 0 0 -212 -14 0
0 0 -15 -2 -104 -82 0 0 -3 -72 -2 -2 0 0 0 -0 -0 0 0 0 0 0 -1 0 -0 -5 0 0 0 0 0 0 0 0 0 0 -0 0 0 0 0 0 0 0 0 0 0
-0 -0 -0 -1 -1 -98 -52 0 -1 -112 -2 -0 -0 0 0 0 0 0 0 -0 0 0 0 0 -0 -1 -0 0 0 0 0 0 0 -1 -25 -43 0 -14 -11 -3 0 0 0 0 0 0 0
0 -0 0 -0 0 -4 -147 -0 -0 -0 -32 -2 -2 -0 -0 -0 -0 0 0 -0 0 -1 -0 -1 -1 -1 0 0 0 0 0 0 0 0 0 0 -11 -9 -2 -8 -13 -7 -1 -1 0 0 0
-0 0 -0 0 -0 0 -8 -125 0 -0 -3 -5 -1 -2 -1 -1 -0 -0 -0 -0 -1 -1 -0 -1 -4 -6 0 0 0 0 0 0 0 0 0 0 0 -5 0 -1 -2 -17 -2 0 -3 0 -17
0 0 0 0 0 0 0 -2 0 -0 -2 -11 -10 -2 -1 -1 -0 -0 -1 -2 -2 -2 -2 -2 -2 -0 0 0 0 0 0 0 0 0 0 0 0 -2 -1 -2 -0 -1 -2 0 0 -10 -12
0 0 -0 0 -0 -0 0 -2 -17 0 -1 -14 -14 -11 -2 -2 -1 -1 -1 0 0 0 -1 0 0 0 0 0 0 0 0 0 0 0 0 0 -3 -1 0 0 0 -0 0 0 0 0 -1
0 -0 0 0 0 0 -0 0 -1 -30 -0 -6 -22 -15 -5 -1 -1 -0 0 0 0 0 0 0 0 0 0 -24 -1 0 0 -1 -3 -2 0 -1 -2 0 0 0 0 0 0 0 0 0 -0
0 0 0 0 0 0 0 0 0 -0 0 -2 -18 -17 -8 -1 -1 -1 -4 -2 0 0 0 -3 0 0 0 -22 -4 -18 0 0 -0 -0 -1 -4 -0 0 0 0 -0 0 0 0 -0 0 0
-0 0 0 0 0 0 0 0 0 -1 -5 -11 -13 -18 -8 -2 -1 -1 -0 0 0 -52 -0 0 0 -1 -2 -1 -1 -17 -30 0 -1 -0 -0 -1 0 0 -0 -1 0 -0 0 0 -0 -1 -0
0 -0 0 -0 0 0 0 0 0 -0 0 -14 -26 -12 -4 -78 0 -1 0 0 -1 -22 0 0 0 0 -2 -1 -3 0 -15 -4 0 -0 0 0 0 0 0 0 0 -0 0 0 -2 -2 -5
0 0 0 0 0 0 0 -0 -1 -1 0 -0 0 -8 -8 0 0 0 0 0 -18 -1 0 0 -0 -0 -0 -1 -0 -8 -0 -1 -2 0 -0 0 0 0 0 0 0 -12 -13 -10 -7 -6 -1
0 -0 -0 -0 -0 0 0 -1 0 0 -3 0 -0 -2 -2 0 0 0 -31 -33 -0 0 0 0 -0 -0 -1 -0 -0 -0 -1 0 0 0 0 0 0 0 -12 0 0 -11 -4 -2 -0 -0 -2
0 0 0 -0 0 0 -0 -0 0 0 -1 -8 0 -10 0 0 0 0 0 -2 0 0 0 0 -0 -3 -0 0 -0 -0 0 -0 0 0 0 0 0 0 0 0 -0 -2 -0 -4 -5 0 0
0 0 0 0 0 -6 -1 0 0 0 -16 -4 -1 -24 -1 -19 0 0 -15 0 0 0 0 0 -0 0 0 0 0 -0 0 -0 0 -0 -5 0 0 0 0 -9 -14 -15 -3 0 -16 -27 -4
0 -0 -0 0 -0 0 -2 -1 -1 -17 -32 -0 0 -4 -0 -25 -10 -13 -3 -0 0 0 0 -0 0 0 0 0 0 -0 -0 0 -1 -0 0 0 0 0 -27 -62 -34 -10 -24 -5 -2 -2 -1
0 -0 -0 0 0 0 0 0 -13 -1 0 -2 -0 0 -0 -8 -12 -1 -0 0 0 0 0 -9 0 -1 0 0 0 0 0 0 0 0 0 0 -8 0 0 -1 -13 -19 -6 -6 0 -6 -2
-0 0 -0 -0 0 0 0 0 0 0 0 -10 -0 0 0 -0 0 -0 0 -1 -5 -2 -13 -3 -0 0 0 0 0 0 0 0 0 0 0 0 -2 0 0 -2 -57 -50 0 0 -2 0 -1
0 -0 0 -0 -5 0 0 0 0 0 -0 -0 0 0 -0 -1 0 0 -0 -1 -2 -3 -2 0 0 0 0 -1 0 0 0 0 0 -10 0 -0 0 0 -2 -0 0 -0 0 -22 0 -11 -5
0 -0 -0 0 0 0 0 0 0 0 0 0 -0 -1 0 -0 -2 -1 -0 -0 0 -8 -0 -0 -0 -0 -0 0 0 0 0 0 0 0 -15 -10 -0 -0 -0 -0 -1 -5 0 -1 0 -0 -5
-0 0 0 -0 -0 0 0 0 0 0 0 -0 -1 -0 -2 0 0 -0 -1 -0 0 0 -0 -0 0 0 -0 -0 0 0 0 0 -28 -5 -4 -0 0 0 0 0 0 0 0 0 -0 0 0
0 0 0 -0 0 0 0 0 0 0 0 -1 -1 -2 -5 0 -0 -0 0 -0 -0 -2 -0 0 0 -0 0 0 0 0 0 0 -8 -0 0 -0 0 0 0 0 0 0 0 0 -0 0 0
0 -0 -0 0 0 -0 0 0 0 -0 -0 0 -14 0 -11 -0 -1 0 -0 -2 -1 -8 -6 -3 -0 -0 -6 -2 -28 -30 -9 0 0 -9 0 0 0 -0 0 0 0 -0 0 -0 0 0 0
-0 0 0 0 -0 0 0 0 0 0 0 0 -0 0 -7 0 -3 -1 -3 0 0 0 -12 -24 0 -0 -2 -8 -17 -18 -9 0 0 0 0 0 0 0 0 0 0 0 0 0 0 0 0
0 0 -0 -0 -0 0 0 0 0 0 0 0 -0 0 0 -2 -0 0 0 0 0 0 0 -1 -11 -13 0 -5 -0 0 -0 -3 0 0 0 0 0 0 0 0 0 0 0 0 0 0 0
0 0 -0 -0 0 0 0 0 0 0 0 -0 0 0 0 -1 -0 0 0 0 0 0 0 -0 0 0 -16 -0 -10 -4 -0 0 0 0 0 0 0 -1 0 0 0 0 0 0 0 0 0
0 -0 -0 0 -0 -0 -0 0 -0 0 0 0 0 0 0 -7 0 0 0 0 0 0 -0 0 -1 -3 -2 0 0 0 -0 0 0 0 -0 0 -3 0 0 0 0 0 0 0 0 0 0
0 -0 -0 0 -0 0 0 -0 -0 0 0 0 0 0 -17 -6 0 0 0 0 0 0 0 -1 -0 -0 -8 -0 -0 0 -0 0 0 0 0 -3 -7 -6 0 0 0 0 0 0 0 0 0
0 0 0 -0 0 0 -0 -0 0 0 0 -0 0 0 0 0 -1 0 0 0 0 0 -0 -6 0 -3 0 -2 -1 0 0 0 -5 0 0 -2 0 -6 0 0 0 0 0 0 0 0 0
Wind_Speed
26 24 20 18 17 15 15 15 13 13 14 15 13 12 11 9 8 6 4 3 2 2 1 2 3 1 2 3 7 4 0 5 4 5 9 7 5 3 5 4 4 9 8 10 11 14 15
26 25 26 23 20 16 16 15 14 13 13 16 14 14 12 10 9 7 5 4 4 3 1 1 2 0 1 6 5 2 6 1 3 4 5 7 7 7 5 6 8 6 6 11 11 15 9
25 26 26 27 23 21 17 14 14 14 14 16 16 15 13 11 11 9 7 6 5 6 4 3 2 2 3 12 3 3 7 3 4 6 4 6 8 2 1 4 4 6 10 11 9 5 10
26 25 25 26 27 26 21 16 14 15 17 16 16 15 14 12 11 10 8 5 3 4 5 5 3 2 7 5 7 7 1 4 3 5 4 5 6 9 5 5 6 4 4 8 5 9 6
25 25 25 27 28 27 26 21 18 17 18 17 15 15 15 13 11 9 8 5 4 5 4 4 3 2 9 3 3 7 5 3 2 1 4 7 2 3 2 2 4 4 6 6 5 6 6
27 27 26 26 26 27 28 26 22 19 19 20 17 16 15 14 11 10 8 7 3 5 2 2 2 2 4 4 3 3 5 4 2 3 4 2 2 3 2 5 15 12 7 9 7 3 8
27 27 28 28 27 29 28 27 26 22 20 19 18 18 16 15 12 11 10 5 3 1 5 9 8 3 2 3 2 2 4 4 3 3 5 2 4 11 11 10 6 8 9 12 5 6 10
28 27 28 29 28 29 30 26 28 27 21 19 18 19 18 17 14 16 7 4 4 3 4 13 12 11 5 2 2 3 7 6 7 10 4 3 11 8 7 8 10 11 15 15 10 10 9
27 28 25 30 29 29 29 25 27 22 21 19 18 20 20 18 14 10 6 4 6 2 2 5 7 7 6 8 6 7 11 6 7 16 16 14 6 16 13 11 10 14 17 9 9 13 18
28 30 25 29 30 30 29 28 28 20 20 17 18 19 21 17 8 5 7 7 5 3 3 4 4 4 6 5 6 15 13 8 5 14 16 13 16 15 10 15 11 18 8 13 13 7 7
30 32 28 29 29 29 27 27 30 19 19 18 16 21 25 21 9 8 6 10 6 4 3 4 4 3 3 9 5 3 14 8 14 9 7 8 8 16 21 18 14 11 8 12 11 10 8
28 29 27 30 29 30 27 25 34 25 18 12 16 25 27 5 4 4 10 12 4 5 10 5 4 5 5 6 3 4 9 9 1 15 15 9 1 5 7 11 18 3 10 8 7 4 12
29 29 28 28 28 30 25 27 36 20 18 20 23 29 23 10 8 11 13 6 4 5 2 7 5 5 5 7 7 8 7 8 5 8 8 6 18 5 2 4 5 13 8 4 6 7 8
29 30 29 29 28 32 27 30 35 21 17 23 29 33 18 5 14 14 5 3 6 5 6 4 5 8 7 8 7 10 5 9 14 5 2 7 4 15 11 18 6 14 16 6 6 5 5
30 30 27 29 29 28 30 35 29 17 17 26 26 11 11 6 15 9 8 5 8 6 6 10 7 6 8 6 5 10 9 8 11 14 8 7 7 2 5 6 15 6 12 20 7 6 3
28 28 28 29 29 29 31 37 29 14 16 21 10 10 11 16 15 9 6 8 6 3 6 4 8 8 9 9 9 8 8 7 8 19 11 6 3 7 5 6 12 11 8 7 7 5 6
29 27 30 28 29 29 30 36 26 24 23 25 6 6 11 17 9 8 8 7 4 4 5 6 7 8 8 7 8 7 6 5 13 11 18 4 4 1 1 7 12 9 10 5 8 8 3
26 28 28 28 27 27 30 34 27 20 22 15 7 6 16 13 8 5 5 6 5 4 4 4 5 9 8 10 7 6 9 8 12 10 11 11 4 6 12 4 10 15 13 14 7 11 8
27 27 27 27 26 27 30 32 27 28 30 4 7 5 12 9 7 10 4 8 5 5 7 7 12 10 10 8 5 12 6 10 9 7 12 11 5 2 5 8 12 14 16 15 13 3 8
27 26 27 27 27 26 28 31 28 27 24 5 4 6 6 6 1 9 13 9 7 7 11 6 5 11 6 8 8 3 8 6 10 13 14 15 5 6 8 4 1 10 20 18 16 12 8
25 24 25 27 28 27 29 30 28 27 30 3 3 3 5 10 7 12 10 4 13 8 6 10 4 11 8 5 6 8 8 4 3 12 9 8 6 6 14 17 14 11 18 23 15 5 13
25 24 25 24 26 27 28 27 27 27 29 1 3 5 3 9 11 8 14 11 11 10 6 6 8 8 14 10 6 1 6 4 5 10 10 5 3 4 17 14 17 8 20 21 11 7 6
25 24 24 25 25 25 27 27 24 24 16 4 2 2 5 11 11 8 6 8 8 4 8 10 11 8 10 15 12 4 5 3 1 4 4 7 4 4 4 6 12 7 19 15 4 8 15
25 23 23 23 25 24 26 27 24 22 17 3 5 2 4 6 9 10 9 14 14 13 10 7 12 8 1 4 3 4 4 4 3 8 10 6 4 5 2 1 3 1 17 23 23 22 22
25 24 22 22 23 23 26 27 25 21 23 9 3 1 3 3 5 5 2 1 4 3 10 12 8 7 5 3 3 2 2 3 0 3 6 5 3 4 3 2 3 3 5 9 11 9 5
24 24 22 22 22 23 26 26 25 23 23 9 3 2 4 4 5 4 5 4 3 2 2 4 1 1 6 5 3 4 4 4 3 3 4 5 2 1 4 3 3 3 2 1 2 3 5
24 24 21 21 22 21 23 26 24 21 21 12 2 1 4 3 2 5 4 4 4 2 2 2 2 3 4 6 3 3 3 2 4 6 5 2 1 4 1 2 8 5 2 1 4 7 2
23 22 22 21 22 21 23 24 23 22 21 9 4 2 3 2 1 3 4 4 2 2 2 1 2 1 3 3 2 3 4 6 2 3 5 6 5 3 3 0 6 2 2 1 4 2 2
23 21 21 21 22 22 23 25 24 24 23 17 2 2 2 3 0 2 2 2 4 4 3 3 2 2 4 3 3 3 2 3 3 3 2 4 6 6 8 7 2 1 0 2 1 4 4
Wind_Direction
342 349 323 287 280 282 283 273 272 259 249 234 232 232 236 231 234 236 239 258 295 289 342 23 31 159 167 207 241 280 159 98 88 132 197 195 192 195 204 220 271 244 256 251 251 252 264
332 341 341 341 298 273 276 279 266 259 244 232 229 226 228 231 231 228 225 235 244 264 296 302 35 99 152 232 226 314 285 271 164 142 186 183 214 206 258 230 235 290 281 260 264 261 251
335 331 325 333 331 306 272 272 262 255 246 235 229 219 218 222 226 225 227 230 244 232 234 233 196 236 271 236 225 3 339 298 182 178 193 215 230 284 17 292 310 273 288 288 250 256 260
345 337 332 326 331 329 311 272 263 253 249 234 227 216 211 210 220 221 221 233 248 255 212 209 190 190 246 249 244 280 300 318 216 187 181 225 217 231 221 279 327 331 258 248 231 216 230
342 338 336 331 323 328 322 289 267 254 248 233 216 219 205 202 213 213 199 196 220 200 175 163 125 180 265 288 222 229 159 217 253 24 285 257 221 223 355 229 270 226 264 262 252 208 218
340 338 333 332 328 322 324 331 280 260 253 236 207 207 199 196 203 197 167 150 114 127 173 132 254 233 255 225 207 213 144 182 250 42 338 223 174 170 101 187 231 236 242 232 228 311 213
339 338 334 334 328 327 320 320 299 276 253 240 218 202 192 190 186 175 129 100 64 332 215 199 187 224 281 180 130 193 145 111 106 104 197 297 210 220 224 221 248 293 290 270 15 321 289
338 339 337 330 329 327 323 316 314 315 253 242 227 196 186 184 180 163 138 187 204 164 261 233 244 238 284 91 189 191 117 161 192 222 137 315 243 231 235 229 235 250 264 273 293 272 267
335 327 335 330 327 323 324 310 315 313 258 240 231 197 182 177 166 166 185 205 145 144 266 255 214 214 202 216 222 200 155 170 205 225 218 224 250 227 219 233 232 238 245 265 261 295 278
338 330 331 331 328 324 323 320 313 315 304 251 231 190 172 150 143 148 200 166 148 96 286 235 218 250 181 185 257 204 182 159 200 225 228 241 231 261 236 234 211 247 220 238 252 267 259
340 331 335 330 326 324 319 327 325 299 305 328 235 190 155 155 143 171 175 146 139 67 352 171 161 307 143 180 142 218 180 186 199 196 173 213 208 216 232 234 221 254 224 233 236 239 271
335 334 336 328 328 327 327 329 327 299 310 312 310 169 158 119 106 148 134 134 97 53 254 170 130 171 172 208 208 100 177 211 279 217 224 216 129 214 212 230 227 246 234 263 245 227 239
337 336 328 324 332 329 333 325 319 294 309 288 314 162 163 147 166 146 133 129 110 186 173 173 171 172 204 189 208 191 170 203 199 192 210 197 233 267 203 226 208 207 235 249 208 207 243
332 334 327 331 334 335 330 327 321 300 297 313 336 160 166 146 140 144 121 93 202 217 188 114 146 158 193 176 215 203 209 212 226 190 239 192 246 197 192 215 178 205 202 207 203 201 221
327 330 330 332 333 338 334 328 318 300 306 300 321 148 150 151 150 149 150 206 214 210 153 147 147 185 194 205 227 204 224 224 227 188 195 202 249 208 226 178 187 204 206 220 313 267 243
325 331 333 330 336 342 335 329 322 309 298 289 288 138 159 154 157 140 166 216 233 224 119 151 185 182 195 184 187 193 193 213 214 196 188 215 265 204 169 174 222 196 161 152 201 239 241
327 332 329 336 337 337 337 325 322 322 312 325 235 115 144 152 148 164 197 221 253 214 145 179 189 183 227 170 180 196 234 245 204 195 191 140 201 169 353 181 204 211 223 206 171 233 269
326 330 331 335 337 332 336 326 331 302 300 322 184 164 149 153 157 187 201 185 212 216 195 173 167 205 210 181 190 204 228 234 187 188 181 200 207 222 234 239 248 210 216 205 209 206 248
326 328 329 335 334 330 335 334 338 342 333 193 164 106 155 168 173 180 201 213 254 208 196 199 200 208 205 185 213 202 213 223 209 174 171 165 218 243 235 198 222 216 207 199 227 222 234
324 329 331 334 333 330 337 340 345 343 328 299 143 133 135 194 247 178 198 212 219 208 230 204 240 196 217 220 221 218 235 241 212 212 164 164 203 241 262 347 34 210 199 203 200 236 203
327 326 330 335 335 333 339 341 350 343 327 331 125 122 139 167 196 188 182 230 200 216 210 184 206 236 220 236 195 224 224 238 142 162 161 162 223 218 244 245 216 245 204 188 191 179 200
331 328 329 335 338 334 336 342 351 340 344 359 159 134 158 166 176 172 190 203 219 199 189 172 216 220 215 234 196 273 202 211 187 167 164 170 248 242 281 261 200 207 190 190 180 185 237
334 328 332 337 338 340 339 341 344 345 4 335 351 326 133 152 182 187 207 215 228 186 202 200 215 260 249 224 243 232 238 223 150 172 143 171 187 285 301 119 129 163 172 176 164 227 194
337 330 337 337 335 339 337 339 349 342 340 290 268 132 127 160 166 197 188 204 232 223 217 214 211 209 253 317 115 304 276 324 243 183 181 180 184 230 305 335 58 66 177 180 196 204 216
336 335 337 336 336 339 337 340 343 344 332 300 280 202 107 120 177 167 218 307 230 290 229 226 200 206 177 300 169 167 343 286 260 172 180 166 163 293 21 296 280 96 93 159 193 199 221
336 333 340 334 338 339 336 341 345 342 331 313 275 251 103 118 193 114 165 217 196 201 244 231 322 346 169 189 178 169 191 217 225 166 212 184 166 319 356 39 30 260 339 89 148 292 172
334 332 333 337 335 336 333 341 344 339 330 331 255 223 94 139 215 139 185 170 156 143 239 272 252 196 207 172 159 154 195 195 189 183 164 129 169 205 352 318 292 257 291 28 117 237 156
329 335 331 334 333 334 334 336 337 345 344 342 283 295 104 132 182 183 153 143 121 166 189 173 241 195 151 155 131 179 186 208 174 230 178 152 157 178 152 162 287 246 360 173 212 45 110
326 333 328 330 331 333 332 336 341 347 342 344 284 359 49 79 45 331 281 267 201 183 148 188 300 214 208 155 184 137 160 146 185 233 248 186 181 170 179 211 241 2 162 31 140 123 114